Location: Blue Sky Observatory
(43.1153°N, 70.9036°W)
Time: 00:01:57
(UTC-05:00)

Daily predictions for brighter satellites

Satellite Brightness Start Highest point End
(mag) Time Altitude Azimuth Time Altitude Azimuth Time Altitude Azimuth
SeaSat 1 4.3 03:43:55 10° NE 03:46:41 27° ENE 03:46:41 27° ENE
Cosmos 2297 Rocket 4.4 04:07:49 14° N 04:07:49 14° N 04:08:42 10° NNE
COSMO-SKYMED 1 4.3 04:10:38 10° SE 04:14:25 30° ENE 04:15:02 29° NE
NOSS 3-1 (A) 3.9 04:18:26 61° NW 04:20:08 90° SW 04:28:32 10° SSE
Cosmos 773 Rocket 4.5 04:27:56 53° SSE 04:27:56 53° SSE 04:31:58 10° SSE
ATLAS 2AS CENTAUR R/B 4.0 04:23:08 20° NNW 04:28:19 42° NE 04:35:32 10° ESE
Cosmos 2233 Rocket 4.1 04:34:14 56° NNW 04:34:14 56° NNW 04:39:24 10° N
Meteor 1-16 Rocket 4.1 04:35:29 70° N 04:35:29 70° N 04:40:10 10° N
Cosmos 1943 3.8 04:34:53 27° N 04:37:49 54° ENE 04:43:22 10° SE
Cosmos 1703 4.1 04:42:07 47° ENE 04:42:23 48° ENE 04:46:12 10° SSE
USA 234 4.4 04:42:24 10° ENE 04:48:02 32° NNE 04:51:03 22° NNW
Cosmos 292 Rocket 3.6 04:50:02 70° NNW 04:50:35 88° ENE 04:55:24 10° SSE
Cosmos 2221 2.4 04:52:48 57° S 04:53:40 85° E 04:57:59 10° N
Meteor 1-11 4.2 04:52:31 38° NNW 04:54:44 66° W 05:00:27 10° S
Cosmos 2263 Rocket 3.2 04:49:47 10° S 04:55:09 46° ESE 05:00:35 10° NE
Cosmos 389 Rocket 4.4 04:53:48 10° SSE 04:57:06 32° E 05:00:24 10° NNE
NOSS 3-1 (C) 4.3 04:56:06 42° W 04:57:42 47° WSW 05:05:35 10° S
NOAA 6 3.9 04:52:55 10° NNE 04:58:09 85° WNW 05:03:20 10° SSW
Tiangong 2 2.5 04:59:19 38° ESE 04:59:19 38° ESE 05:01:30 10° E
Gbstr 26 Del rocket 4.0 04:57:35 30° SSW 05:00:09 62° SE 05:06:31 10° ENE
Cosmos 1777 Rocket 4.1 05:02:06 51° NW 05:02:06 51° NW 05:06:55 10° N
SKYMED 2 3.4 04:58:00 10° SSE 05:02:20 85° WSW 05:03:40 44° NNW
Cosmos 1603 3.9 05:05:03 45° WSW 05:05:03 45° WSW 05:10:24 10° S
APEX 4.5 05:01:45 10° S 05:05:08 34° ESE 05:07:59 10° NE
Cosmos 2034 Rocket 4.2 04:59:24 10° S 05:05:35 74° E 05:11:52 10° N
PSLV R/B 3.7 05:08:27 55° SSE 05:08:27 55° SSE 05:11:28 10° ESE
SL-8 R/B 4.4 05:09:16 36° SW 05:09:21 36° SW 05:13:45 10° SSE
CSL-04 Rocket 4.5 05:05:38 10° NNE 05:10:48 50° E 05:15:54 10° S
Cosmos 1666 Rocket 3.7 05:08:23 10° N 05:12:53 75° E 05:17:21 10° SSE
Cosmos 1513 Rocket 4.4 05:07:33 10° S 05:13:52 86° W 05:20:20 10° N
SeaSat 1 3.0 05:21:29 10° N 05:25:55 34° NW 05:26:30 33° WNW
Cosmos 1908 3.4 05:22:19 10° S 05:26:06 72° E 05:29:57 10° NNE
Coronas F rocket 2.4 05:30:48 30° S 05:30:48 30° S 05:32:11 10° S
Cosmos 1464 Rocket 4.1 05:26:21 10° SSW 05:32:28 52° WNW 05:38:34 10° N
Meteor 2-1 Rocket 4.5 05:28:43 10° SSW 05:34:07 45° WNW 05:39:42 10° N
Ariane Rocket 2.9 05:29:44 10° NNE 05:34:52 83° WNW 05:39:58 10° SSW
Cosmos 1626 2.6 05:40:45 27° NW 05:42:05 37° W 05:45:32 10° SSW
Cosmos 1470 Rocket 3.8 05:41:31 10° N 05:45:51 69° E 05:50:10 10° SSE
Cosmos 1680 Rocket 4.2 05:45:52 18° NW 05:49:08 34° W 05:53:52 10° SSW
COSMO-SKYMED 1 3.6 05:46:57 10° SSW 05:50:33 25° W 05:52:16 20° WNW
Cosmos 1805 Rocket 4.4 05:48:24 17° NW 05:50:52 29° W 05:54:37 10° SSW
Cosmos 1898 Rocket 3.5 05:45:50 10° SSW 05:51:06 88° WNW 05:56:27 10° NNE
DELTA 2 R/B (1) 3.9 05:49:38 17° W 05:53:47 61° S 05:59:16 10° ESE
PAYLOAD A 3.8 05:50:00 10° NNE 05:54:58 84° WNW 05:59:44 10° SSW
Meteor 1-28 Rocket 4.2 05:56:52 10° SSW 06:00:02 26° W 06:02:24 14° NW
IRS-1A Rocket 4.4 05:56:32 10° NNE 06:02:27 87° WNW 06:08:13 10° SSW
Sich 1 3.7 05:58:59 10° NNW 06:02:51 32° W 06:06:40 10° SSW
Cosmos 1184 Rocket 4.3 06:04:19 18° W 06:04:24 18° W 06:06:41 10° SW
IDEFIX/ARIANE 42P 2.7 05:59:34 10° NNE 06:04:53 83° ESE 06:10:09 10° SSW
Cosmos 2150 Rocket 4.0 06:02:50 10° SSW 06:08:15 77° WNW 06:13:38 10° NNE
Cosmos 1633 Rocket 3.9 06:10:05 10° NNW 06:13:49 28° W 06:17:32 10° SSW
Cosmos 1151 Rocket 3.0 06:11:42 10° S 06:15:58 90° SSW 06:20:15 10° N
Helios 1B rocket 2.6 06:12:06 10° SSE 06:16:11 77° ENE 06:20:18 10° N
Cosmos 1328 Rocket 3.8 06:12:25 10° SSW 06:16:34 44° WNW 06:20:48 10° N
Cosmos 1937 Rocket 3.4 06:11:32 10° SSW 06:16:39 73° WNW 06:21:49 10° NNE
NOSS 3-3 (A) 4.1 06:10:31 10° SSW 06:16:43 89° SE 06:23:29 10° NE
NOSS 3-3 (C) 4.1 06:10:39 10° SSW 06:16:50 88° SE 06:23:36 10° NE
Cosmos 2228 Rocket 3.5 06:15:03 10° SSW 06:19:11 40° WNW 06:23:21 10° N
SJ-7 4.3 06:15:13 10° N 06:19:16 81° WNW 06:23:20 10° SSW
ATLAS CENTAUR R/B 4.4 06:15:07 10° NNW 06:19:40 37° NE 06:31:40 10° ESE
ATLAS 2AS CENTAUR R/B 3.2 06:11:50 10° NW 06:19:41 58° WSW 06:26:58 10° SSE
Cosmos 1655 Rocket 4.3 06:13:30 10° N 06:19:47 74° E 06:25:59 10° SSE
Cosmos 1627 Rocket 4.5 06:14:25 10° N 06:20:35 84° W 06:26:47 10° S
Cosmos 1943 4.3 06:17:04 10° NW 06:21:26 23° W 06:25:47 10° SSW
CZ-2C R/B 2.2 06:17:26 10° N 06:21:59 66° WNW 06:26:31 10° SSW
GENESIS II 4.4 06:19:04 10° NNW 06:23:06 75° NE 06:27:02 10° SE
Cosmos 2344 3.8 06:17:32 10° SW 06:25:08 61° NW 06:34:00 10° NE
CZ-4 R/B 1.6 06:21:27 10° N 06:25:26 52° WNW 06:29:28 10° SSW
Aureole 3 4.4 06:19:09 10° NNW 06:25:30 56° W 06:30:30 10° SSW
Cosmos 1634 Rocket 4.0 06:21:27 10° SSW 06:27:41 67° W 06:33:56 10° N
BREEZE-M DEB (TANK) 1.8 06:27:10 10° WNW 06:29:46 63° NNE 06:31:53 10° ESE
Cosmos 1515 Rocket 3.9 06:25:59 10° SSW 06:30:12 43° WNW 06:34:28 10° N
COSMOS 2441 4.5 06:25:31 10° NNE 06:30:21 84° ESE 06:35:08 10° SSW
USA 234 3.5 06:23:55 10° ESE 06:30:24 70° NE 06:36:55 10° NW
Meteor 2-2 Rocket 4.4 06:25:03 10° SSW 06:30:43 55° WNW 06:36:20 10° N
Alouette 2 Rocket 3.3 06:27:15 10° NNW 06:30:50 70° W 06:35:14 10° S
Cosmos 389 Rocket 4.1 06:29:44 10° WSW 06:32:05 16° WNW 06:34:28 10° NNW
SJ-12 4.3 06:28:18 10° N 06:32:10 41° WNW 06:35:59 10° SW
Tiangong 2 1.1 06:31:44 10° W 06:34:53 86° S 06:38:01 10° E
SL-27 R/B 4.0 06:32:05 10° N 06:35:14 34° ENE 06:38:19 10° SE
SMAP 3.2 06:31:24 10° N 06:35:58 56° WNW 06:40:31 10° SSW
Cosmos 2263 Rocket 3.0 06:34:21 10° WSW 06:39:16 29° NW 06:44:14 10° N
YAOGAN 1 2.7 06:36:02 10° N 06:40:16 55° WNW 06:44:30 10° SSW
Cosmos 1726 2.5 06:37:03 10° SSW 06:40:34 42° WNW 06:44:08 10° N
Cosmos 1844 Rocket 3.1 06:35:25 10° SSW 06:41:02 74° ESE 06:46:43 10° NNE
